Lid_Strength_Index
-2 -2 -2 -1 -1 -1 -1 -1 -1 -1 -1 -0 0 1 1 1 2 6 9 4 1 -1 2 6 5 6 7 9 7 7 11 13 12 12 11 10 9 8 6 6 6 5 5 4 4
-2 -2 -2 -1 -1 -1 -1 -1 -1 -1 -1 -1 -0 0 2 1 5 7 2 -0 -1 -2 6 5 5 5 9 10 9 10 13 12 10 9 10 10 10 8 8 8 8 7 4 3 3
-2 -2 -2 -2 -1 -0 -1 -1 -1 -1 -1 -1 -0 0 1 4 9 9 0 -1 -1 -1 2 4 5 5 8 9 10 11 13 11 9 8 8 9 10 9 9 10 7 7 6 4 4
-2 -2 -2 -2 -0 -1 -1 -1 -1 -1 -1 -1 -0 1 2 6 15 5 0 -1 -1 0 2 6 6 7 8 10 9 12 10 10 8 8 8 9 9 9 9 9 7 5 4 4 4
-2 -2 -2 -2 -1 -1 -1 -1 -1 -1 -1 -1 -0 1 4 10 11 4 1 -0 1 2 4 7 7 7 9 8 9 10 10 8 8 8 9 8 9 9 9 8 6 4 4 5 4
-2 -2 -2 -2 -2 -2 -1 -1 -1 -1 -1 -1 -0 1 7 14 6 5 4 2 2 5 6 7 7 6 7 8 9 8 8 9 8 8 8 9 10 9 9 6 5 5 5 5 4
-2 -2 -2 -2 -2 -2 -0 -1 -0 -0 -1 -1 -1 4 7 9 6 5 5 3 2 3 6 3 3 6 6 8 7 7 10 9 9 8 9 9 12 10 8 7 6 6 5 5 4
-2 -2 -2 -2 -2 -2 -2 -0 -0 -0 -1 -0 -1 3 9 4 6 5 4 4 2 3 4 3 2 5 7 6 8 10 11 13 10 8 8 11 15 12 10 9 8 7 7 5 5
-2 -2 -2 -2 -2 -2 -2 -2 -2 -1 -1 -1 3 4 8 2 6 6 4 4 4 4 4 3 4 7 7 10 12 12 15 14 12 9 9 11 13 11 9 10 9 9 9 8 7
-2 -2 -2 -2 -2 -2 -2 -1 -1 -1 0 1 2 7 6 7 5 7 5 4 5 6 6 6 8 11 12 13 16 15 15 14 15 11 10 12 12 10 9 9 10 10 10 10 9
-2 -2 -2 -2 -1 -2 -0 1 4 5 3 6 6 7 5 5 5 7 4 4 6 8 13 10 13 14 12 12 13 13 14 16 13 11 12 12 12 11 10 11 11 10 9 9 9
-2 -1 -2 -2 -2 -1 1 4 4 3 8 4 4 5 3 3 7 7 3 7 8 12 11 13 15 12 10 10 12 13 15 16 13 11 13 14 14 13 12 12 11 11 10 10 10
-2 -2 -1 -2 -2 0 3 3 -0 1 8 7 5 5 5 5 7 8 5 7 9 11 12 14 13 11 12 12 13 14 15 15 16 13 13 15 17 15 14 12 12 12 11 11 11
-1 -2 -1 -1 1 2 4 1 1 1 12 10 8 6 5 5 8 5 4 7 9 12 12 12 11 12 13 14 12 15 13 13 14 16 19 16 21 17 16 15 14 13 13 12 12
-1 -1 -1 -1 3 4 2 1 1 3 20 9 8 2 4 7 7 7 4 6 10 10 11 13 13 13 13 13 11 14 12 13 14 16 18 19 20 19 17 16 16 15 14 13 13
-1 -1 -1 0 2 1 -0 1 4 13 19 12 8 9 9 8 7 6 6 5 7 10 11 11 9 11 12 11 12 11 13 13 14 18 24 19 21 22 18 16 15 14 14 12 12
-1 -1 -1 0 4 1 0 3 16 17 10 13 12 10 10 11 10 9 10 11 12 15 14 12 11 9 9 11 10 12 15 20 23 25 25 19 21 21 17 15 13 12 13 12 11
-1 -1 -1 0 1 1 4 9 17 15 14 10 10 10 12 10 10 10 11 13 10 12 14 16 17 11 9 11 12 12 13 18 24 24 21 18 21 19 15 14 13 12 12 12 12
0 3 3 1 0 2 7 14 16 14 10 11 11 13 13 11 11 11 12 12 10 10 14 15 15 10 9 9 10 12 15 12 17 22 22 20 18 14 13 13 13 12 12 12 11
6 5 4 1 1 5 11 13 15 8 9 10 14 13 15 13 13 13 13 10 11 9 9 12 15 11 10 8 9 11 10 15 17 24 24 21 20 19 15 13 13 13 12 12 11
8 10 5 1 3 7 15 18 11 8 7 10 12 13 13 13 12 13 13 10 9 9 8 10 13 14 11 12 13 13 13 12 13 16 20 22 20 16 14 13 13 12 11 11 11
10 17 6 3 9 9 17 17 8 9 8 9 9 10 12 11 12 13 13 11 7 8 11 9 12 16 14 11 10 10 12 12 16 17 16 16 18 12 13 11 11 10 9 10 10
12 14 5 3 14 11 17 15 11 10 9 10 10 9 9 11 13 12 11 8 7 9 11 9 13 17 16 12 11 12 11 11 12 13 16 18 18 11 11 11 10 10 10 9 9
11 16 9 6 8 14 18 12 16 9 9 8 9 9 11 12 10 12 12 9 8 8 7 8 12 14 17 15 12 14 12 11 12 16 16 15 16 13 11 11 11 10 9 9 8
10 14 12 15 9 10 11 12 15 15 11 8 10 10 11 13 12 12 11 10 8 7 8 9 14 13 12 12 12 12 12 12 13 13 15 14 14 13 11 11 10 10 10 10 9
11 11 10 15 9 9 9 14 13 13 11 12 13 9 9 11 11 12 10 11 11 9 9 9 14 13 14 12 12 14 12 12 12 12 12 12 14 11 10 10 11 10 10 10 9
7 7 9 11 10 10 10 10 11 10 10 9 9 10 10 9 7 7 7 7 8 10 11 11 13 14 17 13 14 16 13 12 12 10 11 14 11 9 10 9 9 9 9 9 9